Tracking 19709 objects as of 19-Jun-2019
HD Live streaming from Space Station
objects crossing your sky now

DELTA 1 DEB

Track DELTA 1 DEB now!
10-day predictions


NORAD ID: 13564
Int'l Code: 1978-026FB
Perigee: 797.3 km
Apogee: 1,102.3 km
Inclination: 98.8 °
Period: 103.9 minutes
Semi major axis: 7320 km
RCS: 0.0124 m2 (small)
Launch date: March 5, 1978
Source: United States (US)
Launch site: AIR FORCE WESTERN TEST RANGE (AFWTR)

Note: This is SATELLITE DEBRIS
aabbcc
Your satellite tracking list
Your tracking list is empty




NASA's NSSDC Master Catalog

Two Line Element Set (TLE):
1 13564U 78026FB  19169.67009175  .00000024  00000-0  46101-4 0  9995
2 13564  98.8136 221.3525 0208278  75.5006  46.2232 13.86002720866734
Source of the keplerian elements: AFSPC